Theta_e
303 303 303 303 303 303 303 303 303 303 303 304 305 305 306 308 309 308 306 309 300 295 296 299 297 293 293 293 288 294 293 296 294 289 288 286 286 288 288 289 288 288 288 290 293 290 287 302 301 298 299 305 305 307
304 304 304 304 303 303 302 302 303 303 304 304 305 305 306 307 308 308 303 308 307 296 297 304 303 304 302 300 295 294 292 290 295 292 291 290 287 290 288 285 293 288 289 289 289 290 300 303 302 305 305 305 305 306
305 305 304 304 304 303 303 303 303 303 304 304 304 305 305 306 308 307 305 306 302 297 298 301 299 304 305 304 306 290 294 295 293 299 295 292 286 289 286 287 290 293 296 291 291 296 299 302 304 304 305 305 306 307
305 305 305 305 304 304 303 303 303 303 303 304 304 305 305 305 307 308 304 307 302 297 290 298 306 304 306 304 302 299 297 299 298 295 293 294 290 295 291 291 290 294 296 293 292 298 300 302 303 304 304 305 305 307
304 305 305 305 304 304 304 304 303 303 303 304 305 305 305 305 306 307 306 305 306 297 292 295 304 305 305 304 302 301 299 296 295 294 295 292 298 296 297 295 292 294 292 291 290 297 297 301 304 304 303 304 306 306
304 304 305 305 304 304 304 304 304 303 303 304 304 304 304 305 306 305 303 308 306 302 293 290 304 303 304 305 304 302 301 298 297 295 294 297 299 297 293 290 295 297 298 299 296 301 302 304 305 306 305 306 307 307
304 304 304 304 304 304 304 304 304 304 303 304 304 304 305 307 307 304 302 307 306 303 295 291 297 303 305 303 304 305 304 304 301 301 298 298 298 297 295 290 297 298 299 301 303 302 300 302 302 305 306 307 308 308
304 304 304 304 304 304 305 304 304 304 303 303 303 305 307 307 305 306 309 306 306 300 300 292 295 299 305 300 300 307 303 304 303 300 299 296 297 297 291 296 296 298 299 300 301 303 303 304 305 305 306 306 306 306
303 303 304 304 304 304 304 304 304 303 303 303 303 306 306 307 306 308 307 308 307 302 294 293 290 291 305 302 303 301 303 294 301 293 293 294 292 288 291 292 294 296 297 299 300 301 303 303 303 304 304 305 304 305
303 303 304 304 304 304 304 304 304 303 303 303 305 305 303 306 305 308 303 299 298 300 300 294 300 294 302 299 298 297 299 295 292 295 297 294 294 298 300 301 303 302 302 302 299 299 301 302 302 303 303 304 305 305
303 303 303 304 304 305 304 304 304 303 303 302 298 298 303 306 305 304 298 297 299 296 301 301 301 297 304 295 293 298 292 297 290 294 292 291 291 297 302 301 303 304 304 303 303 303 304 304 304 304 304 305 306 307
302 303 303 303 304 304 304 304 303 303 301 298 298 299 300 299 300 295 295 297 295 294 299 298 299 301 303 301 297 297 290 292 288 299 292 289 296 300 301 301 303 304 305 305 304 303 304 304 304 304 305 305 305 307
301 302 302 303 303 304 304 303 302 302 301 303 296 294 296 299 289 290 287 292 293 298 299 300 297 302 301 301 298 296 288 288 297 293 292 296 300 301 302 302 303 304 304 304 303 304 303 303 305 305 303 304 305 305
301 302 303 303 303 303 301 301 302 302 300 296 293 289 293 291 294 295 295 297 300 300 300 300 299 299 301 296 297 287 295 294 288 287 289 296 299 301 303 304 303 303 304 303 303 303 303 302 302 303 303 305 304 303
300 301 301 302 301 301 301 301 302 302 299 293 295 287 292 297 300 300 301 301 302 304 301 300 299 298 297 293 295 291 287 286 290 290 298 300 302 303 303 304 304 304 304 303 304 303 303 302 301 303 303 305 303 303
298 299 302 299 300 301 302 302 304 303 298 294 294 295 298 296 296 298 299 299 303 302 303 301 296 293 292 294 289 288 288 286 290 299 300 302 302 303 304 305 303 305 305 305 304 304 304 303 302 303 304 304 304 302
296 299 301 301 301 301 302 300 301 294 294 293 294 300 298 297 297 297 299 299 304 300 295 297 290 289 296 291 289 292 290 297 300 299 303 304 304 304 305 305 304 304 305 304 304 304 304 305 305 302 302 305 304 305
294 298 300 300 301 300 301 299 298 295 291 295 294 298 300 300 298 299 301 302 301 299 298 294 297 292 289 288 291 297 299 301 302 303 303 304 305 306 305 304 304 304 304 305 305 305 305 305 304 302 303 304 304 305
297 298 298 300 300 296 295 296 297 291 293 297 299 301 301 300 302 302 302 303 303 302 299 297 293 291 293 296 296 297 299 300 299 302 304 305 306 306 305 305 305 304 304 305 305 304 305 306 304 302 301 303 300 303
296 298 299 300 300 292 290 294 300 293 290 297 299 299 300 300 301 302 302 302 301 298 294 293 293 295 296 299 301 300 301 302 302 301 301 303 306 306 304 305 306 305 305 304 304 296 303 304 305 304 303 303 301 299
296 299 298 298 295 293 291 294 294 295 296 295 298 299 298 301 299 299 299 302 298 296 294 297 297 300 302 302 303 303 304 304 302 302 301 302 304 304 305 305 305 306 303 303 302 301 300 303 302 303 302 304 303 301
294 298 296 296 292 291 290 296 294 295 293 294 295 297 295 295 296 297 300 297 296 298 299 299 300 301 301 301 303 306 306 305 306 304 295 298 302 302 303 305 304 302 302 303 303 302 302 304 303 301 302 302 301 303
295 295 293 292 288 287 287 296 291 292 289 291 294 292 293 295 297 300 294 297 298 302 302 301 301 302 302 302 303 304 305 305 304 305 305 304 305 307 307 306 306 302 301 302 304 303 303 296 300 301 302 302 300 301
296 290 287 285 286 284 290 288 291 291 293 291 290 289 292 295 299 294 291 295 299 300 299 300 301 300 302 302 301 302 304 306 305 305 305 304 304 304 305 304 305 305 304 303 304 304 303 302 297 301 299 299 297 298
286 284 286 282 287 285 284 286 288 288 286 289 288 288 291 297 292 290 290 295 299 298 299 301 300 300 298 299 300 302 305 304 303 302 304 304 303 302 301 302 303 304 305 303 302 302 301 301 301 299 297 295 293 293
281 285 283 284 285 284 286 284 285 286 288 287 288 292 296 291 287 287 292 297 298 299 300 300 299 299 298 300 299 301 303 306 304 301 301 302 302 300 298 298 298 300 304 304 302 300 299 299 298 295 294 294 289 291
280 282 286 291 290 289 287 290 290 288 286 286 289 289 289 285 286 293 297 300 299 300 301 302 303 302 302 304 305 305 305 306 303 302 304 303 303 302 301 299 297 301 305 303 302 300 298 298 296 294 293 293 292 290
283 285 283 286 287 289 285 286 285 285 288 292 291 287 286 287 290 297 298 301 301 301 301 302 302 303 303 306 305 304 304 304 304 303 302 302 303 303 302 303 302 288 300 299 299 300 299 297 296 293 292 291 290 289
283 287 287 283 284 286 286 285 286 289 292 291 288 287 289 294 297 299 301 300 301 300 299 298 299 302 302 303 304 304 304 303 300 297 296 296 297 298 302 302 301 302 301 298 284 289 294 295 295 295 292 290 289 289
284 288 284 283 282 282 286 289 288 291 292 293 293 293 293 295 298 302 300 299 298 297 298 299 300 299 298 298 299 301 304 303 302 299 297 296 297 300 300 300 300 301 301 301 300 297 285 292 291 296 293 291 289 287
288 287 284 284 283 287 289 291 292 292 292 291 292 290 290 292 295 293 291 293 298 299 297 297 299 300 298 299 300 298 297 300 300 299 300 301 300 299 299 300 301 301 301 301 299 299 298 296 293 289 288 287 285 284
286 283 283 281 284 289 290 288 289 288 289 288 288 290 290 289 288 286 287 288 291 294 290 294 296 294 297 297 297 296 289 296 296 296 296 298 298 298 299 300 300 300 299 298 297 296 293 291 290 288 285 284 284 284
284 285 285 284 284 284 287 287 286 286 288 288 289 289 289 288 282 284 289 287 286 286 289 291 293 291 291 291 291 292 290 291 286 284 285 284 285 290 296 297 297 297 295 294 291 291 290 289 287 286 284 284 283 282
Wind_Speed
18 18 18 20 20 20 21 22 22 21 21 21 20 18 15 14 12 5 5 6 3 5 12 13 9 9 8 8 4 10 9 3 7 7 5 4 4 4 3 3 4 3 1 0 5 4 6 13 3 2 6 5 8 9
17 18 17 18 19 19 20 21 22 22 21 21 20 18 16 14 11 7 5 4 4 5 10 17 17 16 17 18 9 3 3 4 5 5 5 4 2 3 5 2 4 2 4 3 5 4 5 8 12 10 7 7 8 10
18 19 18 18 18 18 20 20 21 23 22 22 21 19 17 15 12 7 6 1 3 4 9 7 3 2 4 5 5 2 1 3 4 8 5 2 3 4 4 5 3 2 4 2 2 5 7 9 8 11 10 11 12 11
18 18 18 19 19 19 19 21 20 22 23 23 22 21 18 15 12 8 6 3 2 4 4 5 4 6 4 7 8 10 6 5 3 2 4 3 3 2 4 3 4 6 5 5 3 8 5 2 10 14 12 13 13 14
18 19 19 19 20 19 19 21 21 22 23 24 24 22 19 15 10 7 6 6 5 2 5 8 17 3 4 7 9 9 9 4 2 3 4 2 2 3 2 3 5 5 6 4 3 7 8 11 13 13 12 15 16 15
19 20 19 19 19 19 19 20 21 23 24 25 26 26 21 14 9 4 5 6 8 5 3 5 7 2 4 5 2 6 5 4 3 2 4 4 4 5 4 4 5 6 6 5 7 12 14 14 9 11 16 16 15 16
19 19 19 20 19 20 20 21 22 23 24 25 25 26 20 6 8 3 5 6 7 5 3 5 5 3 4 4 4 3 5 3 3 3 3 4 3 5 3 5 14 13 11 11 11 9 11 10 14 15 15 16 13 15
18 18 18 19 19 20 19 22 22 23 25 24 24 20 4 12 1 5 4 8 7 3 3 4 5 5 3 3 1 2 2 1 1 3 3 5 6 3 3 11 12 11 13 7 11 10 11 12 13 14 13 14 16 14
17 18 18 18 18 18 19 20 23 24 27 25 20 4 3 5 4 4 3 9 4 3 3 2 4 4 4 2 2 2 2 1 4 3 1 3 2 3 4 8 10 10 8 12 13 13 11 11 12 13 14 14 14 15
18 18 18 18 18 17 18 18 21 24 27 23 5 5 3 4 6 6 3 3 3 4 4 4 2 4 5 4 2 2 2 2 1 3 1 1 3 5 8 9 9 7 6 5 7 11 15 15 13 14 15 14 15 15
18 17 18 18 17 17 18 17 19 22 11 5 5 3 6 3 5 4 4 4 5 5 5 4 4 7 2 4 3 1 2 2 2 4 2 2 2 4 6 5 6 6 7 6 6 8 9 10 13 13 14 14 15 17
18 19 18 17 17 17 17 15 17 9 6 9 9 7 4 4 4 5 4 4 5 2 4 4 5 3 1 2 2 1 2 3 2 2 3 3 3 5 6 6 6 7 9 10 11 11 10 12 12 13 14 14 15 17
18 18 19 18 17 17 16 15 10 12 15 2 3 4 3 2 3 6 6 4 3 5 4 2 4 2 3 3 2 1 2 2 5 3 0 1 2 3 3 4 8 10 11 12 14 14 14 12 12 12 12 12 14 15
18 19 19 18 18 17 7 10 12 10 5 3 3 5 6 5 6 5 5 2 3 3 3 3 2 2 1 3 2 3 1 1 3 2 2 3 6 7 5 4 6 9 11 13 13 14 15 16 13 13 13 14 13 13
20 20 22 15 2 9 13 16 15 5 4 5 4 7 7 7 4 4 4 3 5 3 3 3 3 3 3 3 2 2 3 4 3 3 1 3 5 7 7 7 7 8 10 11 12 13 15 15 11 12 12 13 15 17
21 20 2 4 9 17 16 15 4 3 3 4 7 6 5 6 7 7 8 8 4 4 2 3 3 3 4 3 3 4 3 4 3 3 4 4 5 6 5 5 6 7 8 10 11 11 12 14 13 12 14 14 16 15
18 5 6 11 13 15 18 5 3 5 6 6 7 8 10 7 7 6 4 6 5 6 6 3 4 5 3 4 3 3 4 2 5 6 3 4 6 5 5 5 5 5 7 9 9 10 10 10 12 13 14 15 16 16
8 10 15 18 14 6 3 4 4 5 8 8 7 8 8 7 8 7 5 5 6 7 5 6 4 7 6 5 3 5 6 6 5 6 5 4 4 4 4 4 3 5 7 8 10 12 12 13 13 12 16 16 14 16
14 13 20 23 10 2 5 4 4 6 8 7 9 9 7 7 8 9 8 6 7 6 4 4 8 8 10 11 9 7 6 5 7 4 5 5 5 5 4 3 4 5 5 6 8 7 8 11 9 8 8 10 10 11
21 17 16 11 3 3 5 5 4 6 5 4 5 7 7 7 6 5 7 7 7 5 7 7 10 11 10 9 8 8 6 5 5 7 6 5 4 6 5 5 3 4 4 6 6 5 7 6 8 9 9 10 9 10
15 3 1 4 3 4 4 5 5 5 5 5 5 6 6 4 7 8 8 7 8 5 8 9 11 11 12 11 10 7 6 6 7 7 6 3 4 5 4 5 5 3 5 4 6 6 6 6 7 9 10 11 11 10
6 5 3 5 4 5 6 7 6 4 5 6 7 8 8 7 9 9 5 6 6 10 9 9 8 9 10 12 9 10 11 8 9 4 1 3 5 5 4 3 3 4 4 4 5 6 7 6 6 9 9 11 10 12
11 7 4 6 7 6 7 5 7 6 6 4 3 4 4 4 3 2 4 6 6 5 6 7 7 7 8 8 5 6 7 9 7 7 6 5 4 1 1 1 1 3 5 5 5 6 6 4 5 8 9 10 10 10
7 5 5 6 8 6 4 5 3 4 5 8 7 7 6 4 2 4 6 8 5 3 4 7 7 7 5 6 6 7 7 7 5 5 5 4 3 3 1 2 1 1 3 5 5 6 6 7 6 8 9 10 10 11
6 6 5 8 5 6 6 5 6 6 6 10 12 7 4 3 4 4 6 4 1 3 4 2 4 4 5 5 4 3 3 6 7 7 6 5 4 5 4 3 3 3 4 5 5 5 6 6 7 8 8 8 11 12
8 8 9 6 5 6 7 7 8 13 14 11 6 4 1 4 5 7 4 1 2 3 4 4 3 3 4 5 5 5 7 6 6 8 7 5 4 2 3 1 2 4 4 4 5 6 6 7 7 9 8 8 6 10
8 9 6 6 4 5 5 6 5 4 5 5 5 5 4 6 6 3 5 3 3 4 4 4 4 4 3 2 3 5 7 6 4 7 6 5 5 3 2 2 3 3 2 3 3 6 7 7 6 7 7 7 8 8
9 9 15 11 10 8 12 13 7 6 6 4 2 5 4 5 3 3 3 3 4 5 5 4 4 4 4 2 5 7 7 8 10 9 7 6 5 5 5 5 6 3 4 6 6 5 5 5 5 5 5 5 6 8
7 8 10 15 17 13 11 10 10 9 9 10 10 11 11 7 5 4 3 3 6 8 8 7 5 1 0 1 3 5 7 8 12 13 13 8 8 6 5 6 6 5 4 6 6 7 7 6 6 5 5 5 5 6
15 10 14 16 18 19 16 14 14 12 11 10 9 10 10 10 7 3 5 6 7 7 7 7 7 5 3 4 4 3 2 3 5 5 7 7 6 7 6 5 5 4 3 2 1 5 6 7 5 2 4 5 5 5
9 9 12 14 17 15 15 12 12 13 14 12 11 12 12 10 4 8 7 7 7 5 5 5 3 2 4 1 1 4 5 2 2 3 4 3 5 6 5 4 4 3 2 2 1 1 1 3 5 6 6 6 7 7
9 8 7 14 15 13 13 12 11 12 12 12 12 10 10 5 4 3 6 7 7 3 3 4 4 6 5 5 4 4 6 6 5 5 5 4 4 4 3 2 2 3 3 3 3 3 4 4 4 4 5 6 7 9
13 14 14 12 9 9 9 7 5 8 10 11 11 10 9 1 5 4 3 6 5 6 5 5 6 7 9 9 8 7 8 9 10 8 8 9 8 4 4 4 3 3 5 5 5 4 4 4 4 5 5 6 8 9
Wind_Direction
313 316 320 321 322 324 325 326 327 327 332 333 333 331 326 317 317 287 280 178 233 267 293 288 300 285 278 278 277 319 316 14 292 350 354 347 318 355 280 320 352 9 324 137 298 129 123 354 99 332 38 39 9 358
311 312 315 317 317 319 321 325 323 324 326 328 329 329 323 314 306 290 269 158 210 236 275 304 282 271 255 262 283 246 283 283 297 321 5 326 297 301 306 90 321 89 7 13 7 71 70 58 70 60 22 11 14 354
306 310 309 311 312 315 317 320 322 322 323 322 322 323 321 311 295 264 274 208 210 261 282 254 272 19 201 230 252 230 208 271 332 327 319 317 316 323 347 30 323 44 16 44 243 355 84 69 52 32 9 359 354 351
301 305 307 308 310 312 314 316 320 319 320 319 318 316 316 309 288 251 246 224 233 290 282 325 165 320 127 188 191 199 231 245 277 302 295 307 289 2 334 353 335 355 339 358 55 36 140 72 21 0 349 346 349 348
301 301 304 305 311 314 314 315 317 318 318 318 318 316 315 308 280 245 246 243 219 266 303 306 302 77 204 214 233 222 231 234 266 265 278 302 324 308 233 118 48 358 7 9 14 340 320 323 341 343 342 339 338 339
302 304 301 304 308 310 313 314 316 317 318 317 320 316 312 294 241 218 230 169 202 167 268 293 351 277 342 337 191 220 204 196 233 197 219 263 29 305 336 47 29 33 351 335 306 317 311 306 316 349 329 326 333 325
299 302 301 305 306 307 311 316 316 316 316 318 322 318 307 244 186 250 2 49 136 145 250 290 279 104 333 78 307 138 213 207 232 234 247 343 2 293 298 31 2 358 338 312 303 320 310 339 328 321 325 326 319 317
301 300 304 303 307 306 309 314 317 317 314 318 325 324 341 139 246 231 119 156 149 218 229 286 302 304 22 346 9 334 303 242 108 332 14 356 320 307 19 5 335 338 335 351 341 325 306 308 305 320 326 328 321 319
303 302 300 299 303 305 309 315 320 317 313 318 323 194 211 216 209 76 16 154 196 290 290 225 296 316 341 14 292 296 326 329 37 38 10 321 354 32 262 291 294 289 310 306 316 316 317 322 321 327 327 323 322 321
303 302 300 299 302 306 311 317 321 319 315 310 240 224 205 67 327 136 196 181 190 200 227 257 6 294 312 337 349 343 351 312 355 91 193 278 35 304 261 252 278 314 321 319 323 319 324 320 329 324 320 317 314 313
314 311 309 307 305 306 310 318 323 321 295 336 335 301 353 290 225 212 204 218 164 227 194 233 299 321 115 315 333 6 294 320 249 106 262 146 302 334 8 6 1 10 10 27 359 3 358 319 312 316 318 318 316 312
315 315 310 306 305 301 307 316 320 313 331 314 303 303 299 255 218 232 207 168 215 242 174 267 2 328 47 259 268 297 296 301 282 95 212 189 261 323 7 4 2 347 359 1 1 4 0 2 354 333 321 326 325 320
309 308 307 305 304 303 307 310 309 303 294 218 212 235 226 203 242 216 196 190 215 183 184 280 311 344 158 262 254 297 249 256 318 254 23 30 52 325 357 349 354 8 8 1 2 1 354 353 0 351 338 334 332 321
316 314 308 304 305 305 315 315 326 325 278 264 262 265 224 199 230 208 211 207 129 223 246 287 262 245 160 218 264 221 195 231 246 249 228 349 6 345 332 310 321 356 359 355 359 356 356 1 354 342 345 336 336 330
313 317 311 303 329 330 321 322 316 269 258 257 206 244 229 239 250 223 230 204 186 213 228 212 224 231 180 238 215 291 220 235 227 211 242 314 330 323 326 328 320 335 349 351 351 357 352 355 349 346 356 352 349 341
318 311 286 331 322 320 324 318 272 222 237 236 235 253 231 254 244 213 223 231 189 199 177 241 250 222 212 204 193 214 239 228 226 215 267 326 325 321 316 322 295 317 338 338 344 350 350 355 349 339 340 343 348 344
310 251 354 299 303 307 307 268 221 226 240 227 235 232 260 267 277 282 241 242 168 205 235 215 229 230 120 220 222 190 215 211 217 233 246 304 299 306 309 322 286 312 318 335 337 341 335 348 355 349 336 343 343 351
282 294 320 315 317 299 257 225 249 241 245 240 246 247 220 251 269 259 238 210 201 220 221 230 270 213 228 185 206 204 231 245 252 273 269 283 254 251 278 310 297 303 325 328 333 331 338 348 358 345 343 335 336 337
312 310 300 295 296 291 276 224 227 258 246 259 257 261 252 257 255 257 263 232 215 248 233 205 236 235 235 245 253 249 210 226 256 250 234 226 234 221 232 240 265 283 306 324 320 329 330 334 357 339 328 327 333 338
300 296 281 291 220 217 256 240 214 255 261 279 259 257 248 255 264 252 238 218 195 201 208 221 235 241 251 245 222 249 273 272 221 238 239 207 180 207 214 265 243 287 295 310 312 294 341 338 347 340 336 321 341 342
297 303 319 199 204 233 273 275 241 250 275 259 283 268 270 254 249 244 231 197 205 231 227 236 251 256 251 253 259 266 242 238 233 244 267 274 182 222 200 195 223 285 303 322 328 334 319 8 338 329 327 335 349 342
260 279 287 201 240 226 245 236 251 318 258 263 273 255 268 263 261 256 225 207 233 238 239 250 266 269 248 236 229 219 246 223 227 195 108 155 228 212 208 226 267 298 301 317 336 328 327 17 342 329 331 339 333 346
245 235 230 220 223 230 253 209 231 217 246 236 230 248 228 227 231 159 224 232 255 272 269 282 277 270 272 272 254 217 218 210 200 201 183 219 213 188 265 257 296 298 305 341 337 337 334 5 16 338 341 342 342 345
270 221 223 218 209 243 231 224 217 262 239 230 243 253 262 248 164 243 239 255 271 3 298 264 243 247 198 211 210 212 189 210 202 186 168 190 154 167 207 14 343 326 347 322 336 319 344 356 346 8 351 346 353 341
248 215 217 227 229 214 228 218 212 222 241 234 241 232 245 195 241 248 242 256 132 349 350 311 249 244 242 242 230 215 182 202 178 163 153 185 140 153 164 158 103 46 346 327 331 333 358 356 4 3 2 2 359 341
245 203 207 213 199 213 221 228 219 235 240 242 237 237 181 226 238 245 206 169 62 21 349 327 333 290 243 246 244 162 170 186 164 144 146 150 137 143 113 53 10 99 19 350 333 342 352 6 14 3 357 5 13 359
242 223 207 225 244 258 252 257 288 294 266 251 231 214 204 224 227 229 117 86 72 37 9 357 338 320 308 181 129 148 140 155 143 125 131 125 115 96 87 81 66 63 50 20 10 355 348 6 17 21 6 9 18 15
228 251 233 218 229 225 255 260 255 238 236 213 212 223 215 211 238 80 88 75 3 345 328 342 22 0 335 126 143 145 147 126 122 131 123 122 131 132 125 114 95 51 68 28 358 8 5 19 29 39 32 30 27 28
229 230 247 250 252 253 235 238 244 254 268 273 274 278 288 299 331 317 323 355 320 305 302 306 309 22 215 201 220 186 170 173 172 177 185 173 166 164 166 151 161 171 132 115 68 29 28 27 25 43 56 53 47 52
237 230 243 243 247 251 257 263 270 274 278 284 294 288 293 292 292 339 319 322 306 305 312 306 291 256 235 212 164 178 208 226 234 239 211 206 177 139 164 166 166 164 152 156 149 134 178 220 171 61 38 53 44 41
248 235 230 235 250 251 256 256 257 263 265 266 268 267 268 277 20 38 17 335 300 295 301 298 221 188 148 83 179 178 154 86 54 37 359 68 129 144 151 155 152 152 167 168 151 2 62 48 43 34 32 51 62 63
236 215 231 247 252 254 257 261 257 258 261 255 252 252 246 235 188 60 4 349 345 343 63 5 58 61 59 82 71 58 53 107 90 70 81 92 94 94 118 125 147 145 163 149 126 104 73 53 57 58 67 60 72 76
239 252 255 268 269 264 237 226 247 251 244 240 241 225 229 148 86 40 37 14 8 337 19 55 74 83 77 74 77 78 74 77 73 56 59 45 29 28 124 134 148 147 130 99 94 96 90 91 84 81 89 93 89 84